Regional Weather Roundup
Issued by NWS

Home | Current Version | Previous Version | Text Only | Print | Product List | Glossary Off
Versions: 1 2 3 4 5 6 7 8 9 10 11 12 13 14 15 16 17 18 19 20 21 22 23 24 25 26 27 28 29 30 31 32 33 34 35 36 37 38 39 40 41 42 43 44 45 46 47 48 49 50

000
ASUS43 KLOT 222300
RWRIL

ILLINOIS REGIONAL WEATHER ROUNDUP
NATIONAL WEATHER SERVICE CHICAGO/ROMEOVILLE IL
500 PM CST MON DEC 22 2014

NOTE: "FAIR" INDICATES FEW OR NO CLOUDS BELOW 12,000 FEET WITH NO
SIGNIFICANT WEATHER AND/OR OBSTRUCTIONS TO VISIBILITY.

* THESE STATIONS ARE NOT UNDER NWS QUALITY CONTROL. THEY ALSO MAY NOT
  REPORT WEATHER SUCH AS PRECIPITATION OR FOG.

ILZ001-002-007-009-015-016-024-230000-
NORTHWEST ILLINOIS

CITY           SKY/WX    TMP DP  RH WIND       PRES   REMARKS
MOLINE         CLOUDY    39  37  92 E6        29.56F FOG     WCI  35
STERLING*      CLOUDY    37  34  87 E10       29.60F WCI  30
$$

ILZ003-004-008-010-011-017-018-230000-
NORTH CENTRAL ILLINOIS

CITY           SKY/WX    TMP DP  RH WIND       PRES   REMARKS
ROCKFORD       LGT RAIN  38  35  89 E13       29.65F FOG     WCI  30
$$

ILZ005-006-012>014-019>023-230000-
NORTHEAST ILLINOIS

CITY           SKY/WX    TMP DP  RH WIND       PRES   REMARKS
CHICAGO-OHARE  LGT RAIN  38  36  92 SE13      29.68F FOG     WCI  30
CHICAGO-MIDWAY LGT RAIN  40  38  93 SE12      29.69F FOG
AURORA         LGT RAIN  41  37  86 E13       29.65F FOG
WAUKEGAN       LGT RAIN  37  35  92 E12       29.70F FOG     WCI  29
DUPAGE AIRPORT LGT RAIN  39  37  92 E10       29.65F FOG     WCI  32
WHEELING       LGT RAIN  38  36  92 SE10      29.71F FOG     WCI  31
NORTHERLY ISL    N/A     37  36  96 E9          N/A  WCI  30
$$

LMZ740>746-230000-
SOUTHERN LAKE MICHIGAN

STATION/POSITION SKY/WX   TEMP    WIND        PRES    VSBY  WAVE
                          AIR SEA DIR/SP/G                  HT/PER
                          (F)     (DEG/KT/KT) (MB)    (MI)  (FT/S)
WAUKEGAN HARBOR            37     130/ 16/ 18   N/A
HARRISON CRIB              37     120/ 16/ 19   N/A
BURNHAM HARBOR             37     110/  9/ 10   N/A
CALUMET HARBOR             39     110/  7/ 13 1005.0F
$$

ILZ025>027-034>036-040-047-049-050-058-095>099-230000-
WEST-CENTRAL ILLINOIS

CITY           SKY/WX    TMP DP  RH WIND       PRES   REMARKS
QUINCY         LGT RAIN  44  43  96 SE7       29.51S FOG
$$

ILZ028>032-037-038-041>044-048-051>054-059>061-230000-
CENTRAL ILLINOIS

CITY           SKY/WX    TMP DP  RH WIND       PRES   REMARKS
DECATUR        LGT RAIN  46  45  96 SE15G23   29.60F FOG
PEORIA         CLOUDY    45  42  89 SE7       29.58F FOG
SPRINGFIELD    LGT RAIN  46  46 100 SE10      29.58F FOG
TAYLORVILLE    NOT AVBL
$$

ILZ033-039-045-046-055>057-062-063-230000-
EAST-CENTRAL ILLINOIS

CITY           SKY/WX    TMP DP  RH WIND       PRES   REMARKS
CHAMPAIGN      LGT RAIN  44  43  96 SE16      29.63S FOG
MATTOON        LGT RAIN  46  44  93 SE16      29.62F FOG
$$

ILZ079-100>102-230000-
SOUTHWEST ILLINOIS

CITY           SKY/WX    TMP DP  RH WIND       PRES   REMARKS
BELLEVILLE     LGT RAIN  48  48 100 SE9       29.55F FOG
CAHOKIA*       LGT RAIN  50  48  93 SE8       29.55F FOG
$$

ILZ064>066-069>071-074>076-080>082-084>086-088>090-092>094-230000-
SOUTH-CENTRAL ILLINOIS

CITY           SKY/WX    TMP DP  RH WIND       PRES   REMARKS
CARBONDALE     CLOUDY    50  48  93 S8        29.59S
MARION         LGT RAIN  52  50  93 SE12      29.60F
MT. VERNON     CLOUDY    48  45  87 SE9       29.60F
$$

ILZ067-068-072-073-078-083-087-091-230000-
SOUTHEAST ILLINOIS

CITY           SKY/WX    TMP DP  RH WIND       PRES   REMARKS
LAWRENCEVILLE  LGT RAIN  48  46  93 SE14      29.67S
$$

ABBREVIATIONS USED IN REMARKS
   TC - TEMPERATURE IN CELSIUS
  WCI - WIND CHILL INDEX
   HX - HEAT INDEX
  VSB - VISIBILITY
$$




USA.gov is the U.S. government's official web portal to all federal, state and local government web resources and services.